This is the latest recevied weather packets stored in our database for station/object FW7644. If no packets are shown the sender has not sent any weather packets the latest 10 day(s).
| Time | Temp. | Humidity | Pressure | Rain* | Wind** | Luminosity | Snow |
|---|---|---|---|---|---|---|---|
| 1777895980 | 14.44° C | 97% | 1023.2 hPa | 0 mm | - | - | - |
| 1777895678 | 14.44° C | 97% | 1023.3 hPa | 0 mm | - | - | - |
| 1777895376 | 14.44° C | 98% | 1023.1 hPa | 0 mm | - | - | - |
| 1777895074 | 14.44° C | 97% | 1023 hPa | 0 mm | - | - | - |
| 1777894772 | 14.44° C | 96% | 1023.1 hPa | 0 mm | - | - | - |
| 1777894470 | 14.44° C | 95% | 1023 hPa | 0 mm | - | - | - |
| 1777894168 | 15° C | 92% | 1022.8 hPa | 0 mm | - | - | - |
| 1777893867 | 15.56° C | 93% | 1022.7 hPa | 0 mm | - | - | - |
| 1777893565 | 15° C | 99% | 1022.8 hPa | 0 mm | - | - | - |
| 1777893263 | 14.44° C | 99% | 1022.8 hPa | 0 mm | - | - | - |
| 1777892961 | 13.33° C | 99% | 1022.7 hPa | 0 mm | - | - | - |
| 1777892659 | 12.78° C | 99% | 1022.8 hPa | 0 mm | - | - | - |
| 1777892357 | 12.78° C | 99% | 1022.8 hPa | 0 mm | - | - | - |
| 1777892056 | 12.78° C | 99% | 1022.7 hPa | 0 mm | - | - | - |
| 1777891754 | 12.78° C | 99% | 1022.7 hPa | 0 mm | - | - | - |
| 1777891452 | 12.78° C | 99% | 1022.4 hPa | 0 mm | - | - | - |
| 1777891150 | 12.22° C | 99% | 1022.3 hPa | 0 mm | - | - | - |
| 1777890849 | 12.22° C | 99% | 1022.1 hPa | 0 mm | - | - | - |
| 1777890547 | 12.22° C | 99% | 1022.2 hPa | 0 mm | - | - | - |
| 1777890245 | 12.22° C | 99% | 1022.3 hPa | 0 mm | - | - | - |
| 1777889944 | 12.22° C | 99% | 1022.5 hPa | 0 mm | - | - | - |
| 1777889642 | 12.22° C | 99% | 1022.6 hPa | 0 mm | - | - | - |
| 1777889340 | 12.22° C | 99% | 1022.7 hPa | 0 mm | - | - | - |
| 1777889039 | 12.22° C | 99% | 1022.7 hPa | 0 mm | - | - | - |
| 1777888737 | 12.22° C | 99% | 1022.6 hPa | 0 mm | - | - | - |
* Rain latest hour (hover to see other rain measurements)
** Current wind speed in m/s (hover to see current wind gust speed)